This demonstration page uses our WeatherBlox Daily Observations layout. Learn more.

Left ArrowRight Arrow

40.92945, -100.16068

Hourly Observations for April 22, 2015

Temp ( °F °C ) Dew Point ( °F °C ) Humidity (%) Winds ( mph kmh ) Pressure ( in mb ) Visibility ( mi km ) Precip ( " mm )
12:15 am 00:15 Clear 36 2.1 31 -0.5 83 83 NNE 5 7 30.09 1019 10 16 N/A
12:35 am 00:35 Clear 37 2.7 31 -0.6 79 79 NNE 8 13 30.09 1019 10 16 N/A
12:55 am 00:55 Clear 37 2.5 31 -0.6 80 80 NNE 7 11 30.09 1019 10 16 N/A
1:15 am 01:15 Clear 35 1.6 30 -1.1 82 82 NNE 6 9 30.09 1019 10 16 N/A
1:35 am 01:35 Clear 34 0.9 29 -1.4 85 85 N N/A 30.12 1020 10 16 N/A
1:55 am 01:55 Clear 36 2 30 -1 81 81 N N/A 30.12 1020 10 16 N/A
2:15 am 02:15 Clear 34 1 30 -1.2 85 85 N 3 6 30.12 1020 10 16 N/A
2:35 am 02:35 Clear 32 undefined 29 -1.7 88 88 N 5 7 30.15 1021 10 16 N/A
2:55 am 02:55 Clear 32 -0.2 28 -2.1 87 87 N 6 9 30.15 1021 10 16 N/A
3:15 am 03:15 Clear 31 -0.4 28 -2.2 88 88 N 5 7 30.15 1021 10 16 N/A
3:35 am 03:35 Clear 31 -0.5 28 -2.1 89 89 N 5 7 30.15 1021 10 16 N/A
3:55 am 03:55 Clear 30 -1 28 -2.5 90 90 WNW 3 6 30.15 1021 10 16 N/A
4:15 am 04:15 Clear 30 -0.9 27 -2.6 88 88 NNW 6 9 30.15 1021 10 16 N/A
4:35 am 04:35 Clear 30 -1.1 27 -2.7 89 89 N 6 9 30.15 1021 10 16 N/A
4:55 am 04:55 Clear 31 -0.8 27 -3 85 85 N N/A 30.15 1021 10 16 N/A
5:15 am 05:15 Clear 30 -1 26 -3.5 83 83 N N/A 30.15 1021 10 16 N/A
5:35 am 05:35 Clear 29 -1.6 25 -3.7 86 86 N N/A 30.18 1022 10 16 N/A
5:55 am 05:55 Clear 29 -1.8 25 -3.9 86 86 N N/A 30.18 1022 10 16 N/A
6:15 am 06:15 Clear 30 -1.1 26 -3.3 85 85 WSW 3 6 30.15 1021 10 16 N/A
6:35 am 06:35 Clear 30 -1.1 26 -3.6 83 83 W 3 6 30.15 1021 10 16 N/A
6:55 am 06:55 Sunny 29 -1.5 25 -3.9 84 84 N N/A 30.15 1021 10 16 N/A
7:15 am 07:15 Partly Cloudy 29 -1.7 26 -3.6 87 87 N N/A 30.18 1022 10 16 N/A
7:35 am 07:35 Partly Cloudy 30 -1 27 -2.7 88 88 N 3 6 30.15 1021 10 16 N/A
7:55 am 07:55 Partly Cloudy 32 undefined 29 -1.5 90 90 NNE 3 6 30.15 1021 10 16 N/A
8:15 am 08:15 Partly Cloudy 34 1 28 -2 81 81 ENE 5 7 30.12 1020 10 16 N/A
8:35 am 08:35 Partly Cloudy 36 2.1 28 -2.1 74 74 ENE 6 9 30.12 1020 10 16 N/A
8:55 am 08:55 Sunny 37 3 29 -1.9 71 71 E 6 9 30.12 1020 10 16 N/A
9:15 am 09:15 Sunny 39 3.7 28 -2.5 64 64 ESE 8 13 30.09 1019 10 16 N/A
9:35 am 09:35 Sunny 40 4.4 27 -2.7 60 60 ESE 6 9 30.09 1019 10 16 N/A
9:55 am 09:55 Sunny 41 5.1 28 -2.2 60 60 SE 6 9 30.09 1019 10 16 N/A
10:15 am 10:15 Sunny 42 5.8 28 -2.2 57 57 ESE 7 11 30.09 1019 10 16 N/A
10:35 am 10:35 Sunny 43 6.2 28 -2.4 54 54 SE 8 13 30.12 1020 10 16 N/A
10:55 am 10:55 Sunny 44 6.9 29 -1.9 54 54 SSE 6 9 30.12 1020 10 16 N/A
11:15 am 11:15 Sunny 46 7.7 28 -2 51 51 SSE 12 19 30.09 1019 10 16 N/A
11:35 am 11:35 Sunny 47 8.6 30 -1.2 51 51 SE 12 19 30.09 1019 10 16 N/A
11:55 am 11:55 Sunny 48 9.1 28 -2 46 46 SSE 9 15 30.09 1019 10 16 N/A
12:15 pm 12:15 Partly Cloudy 49 9.7 29 -1.7 45 45 SSE 9 15 30.06 1018 10 16 N/A
12:35 pm 12:35 Partly Cloudy 50 9.9 30 -1.3 46 46 SSE 7 11 30.06 1018 10 16 N/A
12:55 pm 12:55 Mostly Cloudy 51 10.5 30 -0.9 45 45 SSE 13 20 30.03 1017 10 16 N/A
1:15 pm 13:15 Mostly Cloudy 51 10.4 29 -1.6 43 43 SSE 9 15 30.06 1018 10 16 N/A
1:35 pm 13:35 Mostly Cloudy 53 11.4 31 -0.6 44 44 SE 12 19 30.03 1017 10 16 N/A
1:55 pm 13:55 Partly Cloudy 54 12.2 31 -0.8 41 41 SSE 9 15 30.03 1017 10 16 N/A
2:15 pm 14:15 Partly Cloudy 54 12.3 31 -0.4 42 42 S 9 15 30.03 1017 10 16 N/A
2:35 pm 14:35 Mostly Cloudy 54 12.1 31 -0.8 41 41 SSE 10 17 30.03 1017 10 16 N/A
2:55 pm 14:55 Mostly Cloudy 56 13.3 32 -0.1 40 40 SSE 10 17 30.00 1016 10 16 N/A
3:15 pm 15:15 Sunny 56 13.1 30 -0.9 38 38 S 10 17 30.00 1016 10 16 N/A
3:35 pm 15:35 Sunny 56 13.5 31 -0.8 38 38 S 10 17 29.97 1015 10 16 N/A
3:55 pm 15:55 Sunny 57 14.1 32 -0.1 38 38 SSE 12 19 29.97 1015 10 16 N/A
4:15 pm 16:15 Sunny 57 14.1 32 -0.1 38 38 SSE 10 17 29.94 1014 10 16 N/A
4:35 pm 16:35 Sunny 57 14.1 31 -0.5 37 37 S 10 17 29.94 1014 10 16 N/A
4:55 pm 16:55 Sunny 58 14.4 32 undefined 38 38 S 10 17 29.94 1014 10 16 N/A
5:15 pm 17:15 Sunny 58 14.5 31 -0.3 37 37 S 7 11 29.94 1014 10 16 N/A
5:35 pm 17:35 Sunny 58 14.3 32 -0.2 37 37 S 14 22 29.94 1014 10 16 N/A
5:55 pm 17:55 Sunny 58 14.3 32 -0.1 38 38 S 10 17 29.94 1014 10 16 N/A
6:15 pm 18:15 Sunny 57 14.1 32 -0.2 38 38 SE 8 13 29.94 1014 10 16 N/A
6:35 pm 18:35 Sunny 58 14.3 32 0.1 38 38 S 9 15 29.94 1014 10 16 N/A
6:55 pm 18:55 Sunny 57 14 32 0.2 39 39 SSE 9 15 29.94 1014 10 16 N/A
7:15 pm 19:15 Sunny 56 13.6 32 0.1 40 40 S 9 15 29.94 1014 10 16 N/A
7:35 pm 19:35 Sunny 55 13 32 -0.1 41 41 S 12 19 29.94 1014 10 16 N/A
7:55 pm 19:55 Sunny 54 12.2 33 0.5 45 45 SSE 8 13 29.97 1015 10 16 N/A
8:15 pm 20:15 Sunny 52 11.1 33 0.8 49 49 SSE 9 15 29.97 1015 10 16 N/A
8:35 pm 20:35 Clear 51 10.6 33 0.5 50 50 SE 7 11 29.97 1015 10 16 N/A
8:55 pm 20:55 Clear 51 10.6 32 0.1 49 49 SE 7 11 29.97 1015 10 16 N/A
9:15 pm 21:15 Clear 51 10.5 32 undefined 49 49 SE 8 13 29.97 1015 10 16 N/A
9:35 pm 21:35 Clear 48 9.1 33 0.5 55 55 SE 8 13 30.00 1016 10 16 N/A
9:55 pm 21:55 Clear 48 9.1 33 0.3 54 54 SE 8 13 30.00 1016 10 16 N/A
10:15 pm 22:15 Clear 48 9.1 32 0.1 54 54 SE 9 15 30.00 1016 10 16 N/A
10:35 pm 22:35 Clear 47 8.5 32 undefined 55 55 SSE 8 13 30.00 1016 10 16 N/A
10:55 pm 22:55 Clear 44 6.9 33 0.3 63 63 SSE 8 13 30.00 1016 10 16 N/A
11:15 pm 23:15 Clear 45 7.1 32 0.2 62 62 SE 8 13 30.03 1017 10 16 N/A
11:35 pm 23:35 Clear 44 6.9 32 0.1 62 62 SE 7 11 30.00 1016 10 16 N/A
11:55 pm 23:55 Clear 45 7.2 32 undefined 61 61 SE 9 15 30.00 1016 10 16 N/A

Powered by AerisWeather